#timestamp,LO_Frequency,Hit 
1505473215.2,286046994.9,N
1505473235.1,286046997.9,N
1505473236.0,286046997.9,N
1505473255.8,286046995.4,N
1505473275.6,286046995.1,N
1505473295.5,286046996.6,N
1505473315.3,286046998.7,N
1505473335.1,286047001.2,N
1505473355.9,286046998.9,N
1505473375.7,286046999.0,N
1505473395.5,286046998.2,N
1505473415.3,286047000.9,N
1505473435.2,286047000.9,N
1505473455.0,286047000.3,N
1505473455.9,286047000.3,N
1505473475.7,286047000.9,N
1505473495.6,286047000.8,N
1505473515.4,286046998.6,N
1505473535.2,286046998.1,N
1505473555.1,286046998.7,N
1505473556.0,286046998.7,N
1505473575.8,286046998.9,N
1505473595.6,286046996.5,N
1505473615.5,286046994.6,P
1505473635.3,286046990.3,P
1505473655.1,286046988.8,P
1505473675.9,286046987.2,P
1505473695.7,286046991.9,N
1505473715.5,286046992.9,N
1505473735.4,286046991.2,P
1505473755.2,286046998.1,P
1505473775.1,286047001.1,N
1505473776.0,286047001.1,N
1505473795.8,286046996.6,N
1505473815.6,286046995.5,N
1505473835.5,286046995.3,N
1505473855.3,286046995.6,N
1505473875.1,286046995.8,N
1505473895.8,286046995.4,N
1505473915.7,286046998.0,N
1505473935.5,286046996.5,N
1505473955.3,286046997.8,N
1505473975.2,286046997.9,N
1505473995.9,286046999.5,N
1505474015.7,286046998.8,N
1505474035.6,286047002.2,N
1505474055.4,286047002.9,N
1505474075.2,286047001.1,N
1505474095.1,286046995.8,N
1505474096.0,286046995.8,N
1505474115.8,286046994.5,N
1505474135.6,286046992.0,N
1505474155.5,286046990.7,N
1505474175.3,286046988.5,P
1505474195.1,286046990.6,N
1505474215.9,286046988.7,P
1505474235.7,286046993.6,N
1505474255.5,286046999.0,N
1505474275.4,286047001.1,N
1505474295.2,286047001.6,N
1505474315.0,286047002.5,N
1505474315.9,286047002.5,N
1505474335.7,286047001.0,N
1505474355.6,286047000.6,N
1505474375.4,286046999.0,N
1505474395.2,286046997.5,N
1505474415.1,286046991.7,N
1505474416.0,286046991.7,N
1505474435.8,286046992.5,N
1505474455.6,286046992.1,N
1505474475.5,286046991.4,N
1505474495.3,286046990.3,N
1505474515.1,286046994.4,N
1505474535.9,286046994.7,N
1505474555.7,286046990.2,N
1505474575.5,286046988.5,N
1505474595.4,286046988.7,N
1505474615.2,286046988.7,N
1505474635.0,286046987.3,N
1505474635.9,286046987.3,N
1505474655.7,286046986.1,N
1505474675.6,286046986.9,N
1505474695.4,286046989.1,N
1505474715.2,286046988.5,N
1505474735.1,286046991.1,N
1505474736.0,286046991.1,N
1505474755.8,286046989.0,N
1505474775.6,286046988.5,N
1505474795.5,286046987.8,N
1505474815.3,286046986.5,N
1505474835.1,286046986.3,N
1505474855.9,286046986.4,P
1505474875.7,286046994.3,N
1505474895.5,286046991.8,N
1505474915.4,286046991.9,N
1505474935.2,286046992.7,N
1505474955.0,286046991.1,P
1505474955.9,286046991.1,P
1505474975.8,286046998.8,P
1505474995.6,286046999.3,N
1505475015.4,286046996.8,N
1505475035.3,286046999.4,N
1505475055.1,286046996.6,N
1505475075.8,286046999.8,N
1505475095.7,286047003.2,N
1505475115.5,286047001.5,N
1505475135.3,286047002.5,N
1505475155.2,286047005.9,N
1505475175.9,286047006.8,N
1505475195.7,286047006.6,N
1505475215.6,286047008.9,N
1505475235.4,286047001.6,N
1505475255.2,286047004.7,N
1505475275.0,286047005.4,N
1505475275.9,286047005.4,N
1505475295.8,286047001.9,N
1505475315.6,286046998.8,N
1505475335.4,286046999.3,N
1505475355.3,286046994.9,N
1505475375.1,286046996.0,N
1505475395.8,286046993.3,N
1505475415.7,286046994.0,N
1505475435.5,286046994.5,N
1505475455.3,286046992.2,N
1505475475.2,286046992.0,N
1505475495.9,286046992.9,N
1505475515.7,286046992.8,N
1505475535.5,286046996.4,N
1505475555.4,286046994.0,N
1505475575.2,286046990.2,N
1505475595.0,286046992.7,N
1505475595.9,286046992.7,N
1505475615.8,286046995.2,N
1505475635.6,286046999.2,N
1505475655.4,286046998.6,N
1505475675.3,286046999.8,N
1505475695.1,286046998.5,N
1505475696.0,286046998.5,N
1505475715.8,286047001.0,N
1505475735.7,286047000.2,N
1505475755.5,286046997.4,N
1505475775.3,286046995.5,N
1505475795.2,286046994.2,N
1505475815.9,286046995.8,N
1505475835.7,286046994.1,N
1505475855.6,286046988.5,P
1505475875.4,286046991.8,N
1505475895.2,286046991.9,N
1505475915.1,286046990.2,P
1505475916.0,286046990.2,P
1505475935.8,286046998.5,N
1505475955.6,286046998.1,N
1505475975.5,286047001.1,N
1505475995.3,286046996.9,N
1505476015.1,286046996.7,N
1505476035.9,286046998.6,N
1505476055.7,286047001.2,N
1505476075.5,286046998.1,N
1505476095.3,286047000.3,N
1505476115.2,286047000.4,N
1505476135.0,286047001.2,N
1505476135.9,286047001.2,N
1505476155.7,286046999.5,N
1505476175.6,286046999.3,N
1505476195.4,286046997.1,N
1505476215.2,286046997.9,N
1505476235.1,286046993.9,N
1505476236.0,286046993.9,N
1505476255.8,286046993.4,N
1505476275.6,286046992.4,N
1505476295.5,286046992.6,N
1505476315.3,286046992.3,N
1505476335.1,286046993.2,N
1505476355.9,286046990.7,N
1505476375.7,286046988.5,P
1505476395.5,286046993.9,N
1505476415.4,286046994.2,N
1505476435.2,286046991.7,N
1505476455.0,286046992.1,N
1505476455.9,286046992.1,P
1505476475.8,286046998.1,P
1505476495.6,286046998.4,N
1505476515.4,286046999.2,N
1505476535.3,286046995.2,N
1505476555.1,286046993.3,N
1505476556.0,286046993.3,N
1505476575.8,286046994.1,N
1505476595.7,286046996.3,N
1505476615.5,286046994.6,N
1505476635.3,286046994.1,N
1505476655.2,286046994.4,N
1505476675.9,286046996.3,N
1505476695.7,286046996.1,N
1505476715.5,286046996.4,N
1505476735.4,286046994.0,N
1505476755.2,286046993.6,P
1505476775.1,286046996.6,P
1505476776.0,286046996.6,N
1505476795.8,286046997.1,N
